Main page
Satellite images Climate Cyclones Lightning AirportsFAQ Languages Contact Newsletter About
Weather : Europe Africa North America South America Asia Australia-Oceania Others

4268, Kota Bharu, Sultan Ismail Petra Airport

48615

latitude: , longitude: Malaysia, elevation: 06-10N m


METAR: WMKC 221000Z 05007KT 010V070 9999 FEW010 SCT130 BKN220 27/25 Q1006